Location: Washington
(38.8950°N, 77.0370°W)
Time: 08:29:49
(UTC-04:00)

IDEFIX/ARIANE 42P - Visible Passes

Search period start: 17 April 2014 00:00
Search period end: 27 April 2014 00:00
Orbit: 785 x 805 km, 98.3° (Epoch: 16 April)

Date Brightness Start Highest point End Pass type
(mag) Time Alt. Az. Time Alt. Az. Time Alt. Az.
17 Apr 3.4 20:18:53 10° SE 20:23:27 33° ENE 20:28:01 10° N visible
17 Apr 4.3 21:58:37 10° SSW 22:03:01 28° W 22:07:27 10° NW visible
18 Apr 3.2 21:29:47 10° S 21:34:49 52° W 21:39:53 10° NNW visible
19 Apr 2.5 21:01:33 10° SSE 21:06:44 84° ENE 21:11:55 10° NNW visible
20 Apr 2.9 20:33:50 10° SE 20:38:45 45° ENE 20:43:40 10° N visible
20 Apr 4.8 22:14:49 10° SW 22:18:33 20° W 22:22:18 10° NW visible
21 Apr 3.9 21:45:32 10° SSW 21:50:17 37° W 21:55:03 10° NNW visible
22 Apr 2.8 21:16:59 10° S 21:22:07 69° WSW 21:27:18 10° NNW visible
23 Apr 2.6 20:48:59 10° SSE 20:54:05 65° ENE 20:59:12 10° N visible
23 Apr 5.1 22:31:31 10° WSW 22:34:07 14° W 22:36:43 10° WNW visible
24 Apr 3.3 20:21:30 10° SE 20:26:09 35° ENE 20:30:49 10° N visible
24 Apr 4.4 22:01:30 10° SSW 22:05:46 26° W 22:10:04 10° NW visible
25 Apr 3.4 21:32:35 10° S 21:37:33 48° W 21:42:34 10° NNW visible
26 Apr 2.5 21:04:16 10° SSE 21:09:26 90° WSW 21:14:39 10° NNW visible
